[[{"header":{"parameterUnit":"m.s-1","parameterCategory":1,"la1":30.2991,"la2":30.254,"lo1":-89.0895,"lo2":-89.0444,"dy":0.0017,"dx":0.0017,"nx":28,"ny":28,"refTime":"2026-02-07T03:00:00:Z","depth":0,"parameterNumber":2,"parameterNumberName":"U-component_of_WINDS"},"data":[0,0,0,0,0,0,0,0,0,0,0,0,0,0,0,0,0,0,0,0,0,0,0,0,0,0,0,0,0,0,0,0,0,0,0,0,0,0,0,0,0,0,0,0,0,0,0,0,0,0,0,0,0,0,0,0,0,0,-1.8338,-1.8338,0,-1.8334,-1.8334,-1.8334,-1.8284,-1.8282,-1.8281,-1.828,-1.8275,-1.8276,-1.8277,0,0,0,0,0,0,0,0,0,0,0,0,0,-1.8304,-1.8305,-1.8338,-1.8338,-1.8338,-1.8334,-1.8334,-1.8334,-1.8284,-1.8282,-1.8281,-1.8279,-1.8275,-1.8276,-1.8277,0,0,0,0,0,0,0,0,0,0,0,0,0,-1.8311,-1.8305,-1.8338,-1.8313,-1.831,-1.8334,-1.8334,-1.8334,-1.8284,-1.8282,-1.828,-1.8279,-1.8275,-1.8276,-1.8278,-1.8325,0,0,-1.8282,-1.8283,0,0,0,0,0,0,0,0,-1.8311,-1.8313,-1.8317,-1.8315,-1.8312,-1.8307,-1.832,-1.8331,-1.8285,-1.8294,-1.828,-1.8278,-1.8288,-1.8288,-1.8291,-1.8325,-1.8325,-1.8283,-1.8284,-1.8284,-1.8285,0,0,0,0,0,0,0,-1.8311,-1.8313,-1.8337,-1.8317,-1.8314,-1.8302,-1.8301,-1.8322,-1.8301,-1.8293,-1.829,-1.829,-1.8286,-1.829,-1.8291,-1.8325,-1.8283,-1.8284,-1.8285,-1.8286,-1.8397,-1.8399,0,0,0,0,0,0,-1.8314,-1.8312,-1.8337,-1.8336,-1.8307,-1.8304,-1.8303,-1.8311,-1.8301,-1.8298,-1.8291,-1.8287,-1.8288,-1.8289,-1.829,-1.8344,-1.8284,-1.8286,-1.8287,-1.8395,-1.8398,-1.84,0,0,0,0,0,0,-1.8313,-1.8316,-1.8337,-1.8323,-1.8325,-1.8306,-1.8316,-1.8312,-1.8315,-1.83,-1.8296,-1.8299,-1.8287,-1.8288,-1.8317,-1.8343,-1.8286,-1.8288,-1.8393,-1.8396,-1.8399,-1.8453,0,0,0,0,0,0,-1.8312,-1.8316,-1.8334,-1.8324,-1.8326,-1.8363,-1.8318,-1.8313,-1.8318,-1.8313,-1.8306,-1.8303,-1.8285,-1.8315,-1.8318,-1.8345,-1.8289,-1.839,-1.8394,-1.8398,-1.8449,-1.8458,-1.8465,0,0,0,0,0,-1.8311,-1.8349,-1.8335,-1.8338,-1.8348,-1.8365,-1.8366,-1.8345,-1.8321,-1.8338,-1.8328,-1.8303,-1.8341,-1.8318,-1.8322,-1.8349,-1.8388,-1.8393,-1.8397,-1.8445,-1.8456,-1.8465,0,0,0,0,0,0,-1.8362,-1.8348,-1.8331,-1.8368,-1.8368,-1.8356,-1.8377,-1.8357,-1.8364,-1.8359,-1.8333,-1.8332,-1.8364,-1.836,-1.8335,-1.8394,-1.836,-1.8366,-1.8395,-1.8405,-1.8413,-1.8412,-1.829,0,0,0,0,0,-1.8378,-1.8393,-1.838,-1.8413,-1.8414,-1.8396,-1.8403,-1.8387,-1.8386,-1.8386,-1.8378,-1.8378,-1.839,-1.8398,-1.8408,-1.8449,-1.8446,-1.847,-1.8478,-1.8485,-1.8489,-1.851,-1.852,-1.8415,-1.8415,-1.8415,0,0,-1.841,-1.8404,-1.8415,-1.8423,-1.8421,-1.8437,-1.8396,-1.8415,-1.8427,-1.8389,-1.8414,-1.8409,-1.8408,-1.8443,-1.8458,-1.844,-1.8518,-1.8491,-1.8496,-1.8497,-1.8515,-1.8525,-1.8534,-1.8418,-1.8417,-1.8417,0,0,-1.8476,-1.8474,-1.85,-1.85,-1.8498,-1.8486,-1.8493,-1.8485,-1.848,-1.8506,-1.8477,-1.8491,-1.8512,-1.8512,-1.8515,-1.8583,-1.856,-1.8588,-1.8629,-1.865,-1.8658,-1.8665,-1.8687,-1.8696,-1.8592,-1.8593,-1.8593,0,-1.8515,-1.8538,-1.8517,-1.8537,-1.8542,-1.8509,-1.8536,-1.8537,-1.8538,-1.8542,-1.8523,-1.8549,-1.8546,-1.8579,-1.8596,-1.86,-1.8606,-1.8586,-1.8658,-1.8665,-1.8672,-1.8693,-1.8702,-1.8596,-1.8595,-1.8595,-1.8595,0,-1.8586,-1.8603,-1.8625,-1.8627,-1.8635,-1.8659,-1.8641,-1.8651,-1.8635,-1.8626,-1.8653,-1.8648,-1.8656,-1.8664,-1.8649,-1.8696,-1.8685,-1.8663,-1.8627,-1.8685,-1.8705,-1.8713,-1.86,-1.8599,-1.8598,-1.8597,0,0,-1.8681,-1.8673,-1.8681,-1.8681,-1.8678,-1.869,-1.8714,-1.8722,-1.873,-1.8734,-1.8751,-1.8771,-1.875,-1.8753,-1.8738,-1.8757,-1.8809,-1.8732,-1.8732,-1.8745,-1.886,-1.8874,-1.8884,-1.8795,-1.8797,-1.8798,-1.8859,0,-1.8743,-1.878,-1.8763,-1.8802,-1.8817,-1.8787,-1.8807,-1.8807,-1.88,-1.8811,-1.8803,-1.8816,-1.8789,-1.8791,-1.8808,-1.8799,-1.8832,-1.8795,-1.881,-1.8811,-1.8808,-1.8895,-1.891,-1.8968,-1.8867,-1.8868,-1.8869,0,-1.8819,-1.8825,-1.8866,-1.886,-1.8866,-1.8884,-1.889,-1.8902,-1.8902,-1.8895,-1.89,-1.8881,-1.8903,-1.887,-1.89,-1.8875,-1.8881,-1.8878,-1.888,-1.8878,-1.8841,-1.8893,-1.8986,-1.8993,-1.8881,-1.888,-1.8879,0,-1.8881,-1.89,-1.8927,-1.8929,-1.8923,-1.8936,-1.8935,-1.8933,-1.8939,-1.8945,-1.8949,-1.8958,-1.8962,-1.897,-1.8954,-1.8932,-1.8985,-1.8952,-1.8979,-1.898,-1.8989,-1.8988,-1.9081,-1.8998,-1.8998,-1.8997,-1.8997,0,-1.895,-1.8975,-1.8954,-1.897,-1.8999,-1.8979,-1.9008,-1.9003,-1.9002,-1.9017,-1.8993,-1.9008,-1.8987,-1.9,-1.8988,-1.9013,-1.9016,-1.9011,-1.9007,-1.9011,-1.9011,-1.9012,-1.9007,-1.9,-1.8999,-1.8999,-1.8998,0,-1.9022,-1.9009,-1.9036,-1.903,-1.9029,-1.9049,-1.9043,-1.9058,-1.905,-1.9069,-1.9072,-1.9059,-1.9073,-1.9059,-1.9072,-1.9064,-1.9098,-1.9089,-1.9097,-1.9094,-1.9121,-1.9118,-1.9216,-1.9227,-1.9139,-1.914,-1.914,0,-1.9065,-1.9084,-1.908,-1.9088,-1.9088,-1.9102,-1.9108,-1.9091,-1.9098,-1.9101,-1.9115,-1.9127,-1.9135,-1.9158,-1.915,-1.916,-1.915,-1.9184,-1.9151,-1.9155,-1.9147,-1.9145,-1.9146,-1.9189,-1.919,-1.9191,-1.9192,0,-1.9142,-1.9135,-1.9146,-1.9154,-1.9163,-1.9168,-1.9172,-1.9181,-1.9163,-1.9173,-1.9186,-1.9193,-1.9206,-1.9218,-1.9226,-1.9224,-1.9205,-1.9203,-1.9209,-1.9212,-1.9215,-1.9212,-1.9112,-1.92,-1.9199,-1.9198,-1.9198,-1.9198,-1.9199,-1.9215,-1.9214,-1.9226,-1.9228,-1.9233,-1.9246,-1.924,-1.9251,-1.926,-1.925,-1.9267,-1.9267,-1.9275,-1.9276,-1.9289,-1.9275,-1.9285,-1.9286,-1.9288,-1.9291,-1.9216,-1.9291,-1.9291,-1.929,-1.929,-1.929,0,-1.9273,-1.9272,-1.9284,-1.929,-1.93,-1.9283,-1.9287,-1.9296,-1.9311,-1.9313,-1.9322,-1.9338,-1.935,-1.9343,-1.9353,-1.9365,-1.9356,-1.9368,-1.9365,-1.9365,-1.9305,-1.9297,-1.9374,-1.9374,-1.9374,-1.9374,-1.9374,-1.9374,-1.9313,-1.9337,-1.9331,-1.9356,-1.9355,-1.9371,-1.9374,-1.9379,-1.938,-1.9399,-1.9409,-1.9405,-1.9404,-1.9414,-1.9424,-1.9421,-1.9425,-1.944,-1.9434,-1.9377,-1.9369,-1.9361,-1.9353,-1.9441,-1.9441,-1.9492,-1.9493,-1.9493]},{"header":{"parameterUnit":"m.s-1","parameterCategory":1,"la1":30.2991,"la2":30.254,"lo1":-89.0895,"lo2":-89.0444,"dy":0.0017,"dx":0.0017,"nx":28,"ny":28,"refTime":"2026-02-07T03:00:00:Z","depth":0,"parameterNumber":3,"parameterNumberName":"V-component_of_WINDS"},"data":[0,0,0,0,0,0,0,0,0,0,0,0,0,0,0,0,0,0,0,0,0,0,0,0,0,0,0,0,0,0,0,0,0,0,0,0,0,0,0,0,0,0,0,0,0,0,0,0,0,0,0,0,0,0,0,0,0,0,1.793,1.793,0,1.7964,1.7964,1.7965,1.8053,1.8054,1.8056,1.8058,1.809,1.8089,1.8088,0,0,0,0,0,0,0,0,0,0,0,0,0,1.7939,1.7939,1.793,1.793,1.793,1.7964,1.7964,1.7965,1.8052,1.8055,1.8057,1.8059,1.809,1.8089,1.8088,0,0,0,0,0,0,0,0,0,0,0,0,0,1.795,1.7939,1.7929,1.7978,1.7983,1.7964,1.7964,1.7965,1.8052,1.8055,1.8057,1.806,1.8091,1.809,1.8088,1.8024,0,0,1.8084,1.8084,0,0,0,0,0,0,0,0,1.795,1.795,1.7971,1.7975,1.798,1.8007,1.798,1.7985,1.8051,1.8025,1.8058,1.8061,1.806,1.8061,1.8062,1.8025,1.8027,1.8084,1.8083,1.8083,1.8082,0,0,0,0,0,0,0,1.7949,1.7949,1.7943,1.7971,1.7977,1.7998,1.8003,1.7981,1.8026,1.8028,1.8034,1.8037,1.8063,1.8063,1.8063,1.8027,1.8084,1.8083,1.8082,1.8082,1.7944,1.7941,0,0,0,0,0,0,1.7941,1.7948,1.7942,1.7944,1.7972,1.7996,1.8001,1.7995,1.8027,1.8035,1.8035,1.8041,1.8064,1.8064,1.8064,1.7994,1.8083,1.8081,1.8081,1.7947,1.7943,1.794,0,0,0,0,0,0,1.7941,1.794,1.7941,1.7948,1.795,1.7993,1.7986,1.7995,1.7994,1.8032,1.8041,1.8026,1.8066,1.8066,1.8034,1.7996,1.8081,1.808,1.795,1.7946,1.7942,1.785,0,0,0,0,0,0,1.7941,1.7939,1.7915,1.7947,1.7949,1.7909,1.7983,1.7993,1.7992,1.8001,1.8026,1.8033,1.8068,1.8036,1.8033,1.7996,1.8079,1.7954,1.7948,1.7943,1.7856,1.7843,1.7831,0,0,0,0,0,1.7941,1.7886,1.7913,1.7912,1.7919,1.7907,1.7908,1.795,1.7989,1.7965,1.799,1.8032,1.8001,1.8032,1.8029,1.7991,1.7956,1.795,1.7944,1.7862,1.7845,1.7831,0,0,0,0,0,0,1.7846,1.7891,1.7921,1.7875,1.7887,1.7922,1.7893,1.7931,1.7931,1.7939,1.7991,1.7996,1.7957,1.7971,1.8005,1.7932,1.7986,1.7978,1.7924,1.7909,1.7897,1.7894,1.8077,0,0,0,0,0,1.782,1.7807,1.7847,1.7802,1.7807,1.7849,1.7845,1.7877,1.7891,1.7896,1.7918,1.7929,1.7923,1.7917,1.7912,1.7859,1.7867,1.7832,1.7819,1.7809,1.7802,1.7778,1.7763,1.7919,1.7919,1.7919,0,0,1.7766,1.7789,1.7777,1.7784,1.7797,1.7782,1.7852,1.7833,1.7823,1.7892,1.7865,1.7882,1.7898,1.7856,1.7839,1.7866,1.7761,1.7801,1.7792,1.7791,1.777,1.7755,1.7742,1.7915,1.7916,1.7916,0,0,1.766,1.7675,1.7641,1.7653,1.7673,1.7702,1.7694,1.7724,1.7739,1.7713,1.7765,1.7754,1.774,1.7751,1.7754,1.7657,1.7697,1.7654,1.7588,1.7564,1.7552,1.7541,1.7508,1.7496,1.7647,1.7647,1.7647,0,1.7589,1.757,1.7618,1.7597,1.76,1.7664,1.7631,1.7641,1.7657,1.7657,1.7688,1.7675,1.769,1.7654,1.763,1.763,1.7624,1.7651,1.755,1.754,1.753,1.75,1.7487,1.7641,1.7642,1.7643,1.7643,0,1.7483,1.7469,1.744,1.7457,1.7456,1.7428,1.7473,1.7467,1.75,1.7526,1.7499,1.7521,1.7523,1.7517,1.7547,1.7485,1.7502,1.7541,1.7595,1.751,1.7482,1.747,1.7634,1.7636,1.7637,1.7639,0,0,1.7315,1.7363,1.7351,1.7361,1.739,1.738,1.7357,1.7361,1.7355,1.7365,1.7348,1.7337,1.7375,1.7378,1.7411,1.739,1.7315,1.7432,1.7434,1.7411,1.725,1.7221,1.7207,1.7342,1.734,1.7338,1.7249,0,1.7216,1.718,1.7225,1.7179,1.7168,1.7232,1.7212,1.7228,1.7252,1.7247,1.7274,1.7266,1.7315,1.7318,1.73,1.7328,1.7283,1.7335,1.7327,1.7326,1.7321,1.7192,1.7161,1.7076,1.7239,1.7237,1.7235,0,1.7095,1.7103,1.7056,1.7092,1.7089,1.707,1.708,1.7074,1.7094,1.7113,1.712,1.7161,1.7142,1.7195,1.7171,1.7205,1.7204,1.7218,1.7216,1.7216,1.7275,1.719,1.7049,1.7037,1.7218,1.722,1.7221,0,1.6979,1.6978,1.6951,1.6957,1.6997,1.6983,1.6999,1.7022,1.7023,1.7031,1.7033,1.7038,1.7041,1.7045,1.7086,1.7121,1.7057,1.7114,1.7074,1.7073,1.7057,1.7057,1.6915,1.7055,1.7055,1.7056,1.7056,0,1.6865,1.6834,1.69,1.6883,1.6852,1.6905,1.6872,1.6894,1.6915,1.6905,1.6959,1.6948,1.7004,1.6999,1.7032,1.7008,1.7008,1.7024,1.7033,1.7019,1.7017,1.702,1.7027,1.7052,1.7053,1.7054,1.7054,0,1.6729,1.6772,1.6747,1.6789,1.6799,1.6774,1.6809,1.6796,1.6826,1.6812,1.6812,1.6858,1.6856,1.6898,1.6903,1.6926,1.6887,1.6906,1.6881,1.6887,1.6846,1.6849,1.67,1.6684,1.6833,1.6832,1.6831,0,1.6653,1.6632,1.6672,1.667,1.6684,1.6679,1.6682,1.6733,1.6734,1.6758,1.6742,1.6745,1.6749,1.6743,1.6777,1.6782,1.6802,1.675,1.6803,1.6791,1.6804,1.6805,1.6804,1.6738,1.6736,1.6735,1.6734,0,1.6514,1.6538,1.654,1.655,1.6552,1.6562,1.6576,1.6571,1.6628,1.6626,1.6625,1.6629,1.6637,1.6639,1.6652,1.6669,1.6711,1.6717,1.6708,1.6694,1.6681,1.6689,1.6851,1.672,1.6721,1.6722,1.6723,1.6723,1.6407,1.6393,1.642,1.6421,1.6438,1.6451,1.6441,1.6472,1.6473,1.6484,1.6515,1.651,1.6534,1.6555,1.6569,1.6566,1.6592,1.6579,1.6576,1.6572,1.6565,1.6681,1.6568,1.6569,1.6569,1.6569,1.657,0,1.6273,1.6295,1.6295,1.6315,1.6316,1.6358,1.6377,1.6375,1.6371,1.639,1.6395,1.6396,1.64,1.6436,1.6444,1.6435,1.6455,1.6436,1.6437,1.6441,1.654,1.6548,1.642,1.642,1.642,1.642,1.642,1.642,1.6203,1.6181,1.6209,1.6197,1.6219,1.6216,1.6223,1.6236,1.6252,1.6252,1.6256,1.628,1.6307,1.6318,1.6324,1.6335,1.6336,1.631,1.6327,1.6419,1.6433,1.6447,1.6455,1.631,1.631,1.6229,1.6228,1.6228]}]]